Theta_e
313 313 313 314 314 314 314 314 314 314 313 313 313 313 313 313 313 313 313 313 313 313 313 313 313 313 313 313 313 313 312 312 312 312 312 312 312 312 312 312 312 312 312 312 311 311 310 310 310 310 310 310 310 310 310 309 307 306 306 307 308 309 310 311 311 311 310 310 309 309 310 310 311 311 311 311 310 311 310 311 310 308 307 306 306
313 313 313 314 314 314 314 313 313 313 312 312 312 312 312 312 312 312 312 313 313 313 313 312 313 313 313 313 313 313 312 312 312 312 312 312 312 312 312 312 311 311 311 311 311 311 311 310 310 310 310 309 309 309 309 309 307 306 306 306 307 308 309 309 310 309 309 309 309 310 310 311 311 311 310 310 309 309 309 309 308 307 306 305 304
313 313 313 313 313 313 313 313 312 312 312 312 311 311 311 311 312 312 312 312 312 312 312 312 312 312 312 312 312 312 312 312 312 312 312 312 312 312 312 312 311 311 311 311 311 310 310 310 310 310 310 309 309 309 309 309 308 306 305 306 307 308 308 308 308 309 309 309 310 310 310 310 309 309 309 309 308 307 307 307 307 305 304 303 303
313 312 312 312 312 312 312 312 312 312 312 311 311 311 311 311 311 311 311 311 311 311 311 311 311 311 311 311 311 311 311 312 312 312 312 312 312 312 312 312 312 312 312 311 311 310 310 310 310 310 310 309 309 309 308 308 307 307 306 305 305 306 308 309 309 309 309 309 309 308 308 308 308 308 309 308 307 306 306 305 305 304 303 302 302
312 311 311 312 312 311 311 311 311 311 311 310 310 309 309 308 308 308 308 308 309 309 309 309 309 309 310 310 310 310 310 311 311 311 311 311 311 311 312 312 312 312 312 311 311 311 310 310 310 310 309 310 310 309 309 308 307 307 306 305 304 304 305 306 307 307 308 308 308 308 308 308 308 308 308 307 306 305 304 304 303 302 301 301 300
311 311 311 311 311 311 311 310 310 310 309 308 307 306 306 305 305 305 305 305 305 305 306 306 306 306 306 307 307 308 308 308 309 309 310 310 311 311 311 311 311 311 311 311 311 311 311 311 310 310 310 310 310 310 309 309 308 307 307 306 305 304 304 305 306 307 307 308 308 308 307 307 307 307 306 305 304 303 303 302 301 301 300 300 299
311 311 311 311 311 310 309 309 308 307 307 306 305 304 304 303 303 303 303 303 303 303 303 303 303 303 304 304 304 304 304 305 305 306 307 308 309 309 310 310 310 310 310 310 311 311 311 311 310 310 310 310 310 310 309 309 308 308 307 306 305 303 303 304 306 307 307 307 307 307 307 306 306 305 305 304 302 301 300 300 300 300 300 299 298
310 310 309 309 309 308 307 306 306 305 305 304 304 303 303 303 302 302 302 302 302 302 302 302 302 302 302 302 302 302 302 303 303 303 304 305 305 306 307 308 308 309 309 310 310 310 310 310 310 310 310 310 310 309 309 308 307 307 307 306 304 303 303 304 305 306 306 306 306 306 306 305 304 304 304 302 301 301 301 301 301 300 299 298 297
308 307 307 307 306 306 305 305 304 304 304 304 304 303 303 303 302 302 301 301 300 300 300 300 300 300 301 301 301 301 301 301 302 302 302 303 303 304 304 305 306 307 308 308 309 309 309 309 309 309 309 309 309 309 309 308 307 306 306 305 303 302 302 303 304 305 305 305 305 305 304 304 304 303 303 303 302 302 302 301 299 298 297 296 295
306 305 305 305 304 304 304 304 303 303 303 303 303 303 302 302 301 300 300 299 299 299 299 299 299 299 299 300 300 300 300 300 301 301 301 302 302 303 304 304 305 305 305 306 307 308 308 308 309 309 309 308 308 308 308 308 307 306 305 304 303 302 302 302 303 304 304 303 304 303 303 303 303 303 303 304 303 302 301 299 298 297 295 293 292
304 304 304 303 303 303 303 303 303 303 303 302 302 301 300 300 299 298 298 298 298 298 298 298 298 298 298 298 298 298 298 299 299 299 299 299 300 301 302 303 304 304 304 305 305 305 306 307 307 308 308 308 308 307 307 307 307 307 306 304 302 301 301 302 303 303 303 303 303 303 302 302 303 303 303 303 302 301 300 298 297 295 294 293 292
302 302 302 302 302 302 302 302 302 302 301 300 300 299 298 298 297 297 297 297 297 297 297 297 297 297 297 296 296 297 297 297 297 297 297 297 297 297 298 299 300 302 303 304 304 304 304 305 305 306 306 307 307 307 307 307 307 306 306 304 302 301 301 301 302 302 302 302 302 302 302 302 302 302 302 302 302 300 299 297 295 294 294 294 293
301 301 301 302 302 302 302 301 300 300 299 298 297 297 297 296 296 296 296 296 296 296 296 296 296 296 296 296 296 296 296 296 296 296 295 295 295 295 296 296 297 298 299 301 302 303 304 304 304 304 305 306 306 307 307 307 306 306 305 304 303 302 301 301 301 302 302 302 302 302 302 302 301 301 301 301 300 299 297 296 294 293 293 293 294
300 301 301 301 301 300 299 299 298 297 297 297 296 296 296 296 296 296 296 296 296 296 296 296 296 296 296 296 296 296 296 296 295 295 295 295 295 294 295 295 295 295 296 297 298 300 302 303 304 303 304 305 305 306 306 306 305 305 304 303 303 302 301 301 301 302 302 302 302 302 303 302 302 302 301 300 299 298 297 296 295 294 294 293 293
300 300 300 299 298 298 297 297 296 296 296 296 296 296 295 295 295 295 295 295 295 295 295 295 296 296 295 295 295 296 296 295 295 295 295 295 294 294 294 294 294 294 295 295 295 296 298 301 303 303 303 303 304 305 305 304 304 304 303 302 301 301 301 300 300 300 302 302 302 302 303 303 302 301 300 299 298 297 296 295 295 295 294 293 291
299 299 298 297 297 296 296 296 296 295 295 295 295 295 295 295 295 295 295 295 295 295 295 295 295 295 295 295 295 295 295 295 295 295 295 294 294 294 294 293 294 294 294 294 294 294 295 297 299 302 303 303 303 303 304 304 303 302 302 301 301 300 300 300 299 300 300 301 302 302 302 302 301 300 299 298 297 295 294 293 292 292 291 290 289
298 297 297 296 296 296 296 295 295 295 295 295 295 295 295 294 295 294 295 295 295 295 295 295 295 294 294 294 294 295 295 295 294 294 294 294 293 293 293 293 293 293 293 294 293 294 294 294 295 297 300 302 303 303 303 303 302 301 301 301 300 300 299 299 299 300 300 301 301 302 301 300 299 298 298 297 295 295 294 292 291 290 289 289 288
297 296 296 296 295 295 295 295 295 295 295 295 294 294 294 294 294 294 294 294 294 294 294 294 294 294 294 294 294 294 294 294 294 293 294 293 293 293 293 292 293 293 293 293 293 293 293 293 294 294 296 298 301 302 302 302 301 301 301 300 300 300 300 300 300 300 300 300 300 300 299 299 298 297 296 295 294 294 293 292 291 290 290 289 288
296 296 295 295 295 295 295 294 294 294 294 294 294 294 294 294 294 294 293 293 293 293 293 293 293 293 293 293 293 293 293 293 293 293 293 293 292 292 292 292 292 292 292 292 292 292 292 292 293 293 294 296 298 301 302 301 300 300 300 299 299 299 299 299 299 299 299 299 299 299 298 298 297 296 295 294 294 293 293 292 291 291 291 290 289
295 295 295 295 294 294 294 294 294 294 293 293 293 293 293 293 293 293 293 292 293 293 293 293 293 293 293 292 292 292 292 292 293 292 292 292 292 291 291 291 291 292 292 292 292 292 292 292 292 293 294 296 298 300 301 300 299 300 299 299 299 299 299 299 298 298 297 297 297 297 296 296 295 294 294 293 293 292 292 291 290 291 292 291 290
295 294 294 294 294 293 293 293 293 293 292 292 292 292 292 292 292 292 292 292 292 292 292 292 292 292 292 292 292 292 292 292 292 292 292 292 292 291 291 291 291 291 291 291 291 291 291 291 292 292 294 296 299 300 300 299 299 299 299 298 299 299 298 298 297 297 296 295 295 295 294 294 293 293 292 292 292 292 291 290 290 291 291 291 291
294 294 293 293 293 293 292 292 292 291 291 291 291 291 291 291 291 291 291 291 291 291 291 291 291 291 291 291 291 291 291 291 291 291 291 291 291 291 291 290 290 290 291 291 291 291 291 291 291 292 295 297 299 299 298 298 298 298 298 298 298 298 297 296 296 295 295 294 293 293 292 292 292 291 291 291 291 290 289 289 289 290 290 291 291
293 293 292 292 292 291 291 291 290 290 290 290 290 290 290 290 290 290 290 290 290 290 290 290 290 290 291 291 291 291 291 291 291 291 290 290 290 290 290 290 290 290 291 291 291 291 290 290 291 293 296 298 298 298 297 297 297 297 297 297 297 297 296 294 294 293 293 292 291 291 291 291 291 291 291 290 290 289 289 289 289 289 289 290 291
292 291 291 291 291 290 290 290 290 290 290 290 290 290 290 290 290 290 290 290 290 290 290 290 290 290 290 290 290 291 291 291 291 290 290 290 290 290 290 290 291 291 291 290 290 290 290 291 292 294 296 297 297 297 297 297 297 297 296 296 296 294 293 293 293 292 291 290 290 290 290 290 290 290 290 290 289 289 289 289 289 289 289 289 290
291 290 290 290 290 290 290 290 290 290 289 289 289 289 290 289 290 289 289 289 289 289 289 289 289 289 289 289 289 289 290 289 290 290 290 289 289 290 290 291 291 291 291 290 290 290 290 291 294 295 296 296 295 296 296 296 297 296 296 295 294 293 292 292 292 291 290 290 289 289 289 289 289 289 289 290 289 289 290 289 289 289 289 289 289
290 290 289 289 289 289 289 289 289 289 289 289 289 289 289 289 289 289 289 288 288 288 288 288 288 288 288 288 288 289 289 289 289 289 289 289 290 290 291 292 291 291 290 290 290 290 290 292 294 294 294 295 295 295 295 296 296 295 295 294 292 291 291 291 291 290 290 289 289 288 288 288 288 288 289 289 289 289 289 289 289 289 289 290 290
289 289 289 289 289 289 289 289 289 289 289 289 288 288 288 288 288 288 288 288 288 288 288 288 288 288 288 289 289 289 289 289 289 289 290 290 291 291 291 291 291 290 290 290 290 290 290 292 293 293 293 294 294 294 295 295 295 295 294 293 292 290 290 290 290 290 289 289 288 288 287 288 288 288 288 289 289 289 289 289 289 289 290 290 289
289 289 289 289 289 289 289 289 288 289 288 288 288 288 288 288 288 288 288 288 288 288 288 288 288 289 288 289 289 289 290 290 290 290 290 290 290 289 289 288 289 288 289 289 289 289 290 292 293 293 293 293 293 294 294 294 294 294 293 292 291 291 290 289 289 289 288 288 288 287 287 287 287 288 288 289 289 288 289 289 290 290 290 289 287
289 288 289 288 288 288 288 288 288 288 288 288 288 288 288 288 288 288 288 288 288 287 287 288 289 288 287 287 287 287 288 290 290 290 289 289 288 287 286 286 286 286 286 287 287 287 288 289 290 291 291 292 293 293 293 294 294 293 292 291 290 290 289 288 288 288 288 287 287 287 287 287 287 288 288 289 289 289 289 289 289 289 288 287 286
288 288 288 288 288 288 288 288 288 288 288 288 288 288 288 288 287 287 288 288 288 288 286 286 287 286 285 285 286 285 285 287 288 288 288 288 287 285 285 285 285 285 286 286 286 287 287 287 288 288 289 291 292 293 293 293 293 292 291 290 289 289 289 288 288 287 287 287 287 287 287 287 287 288 288 289 289 289 289 288 288 287 286 286 285
288 288 288 288 288 288 288 287 287 287 287 287 287 287 287 288 288 288 287 286 287 287 287 285 284 283 282 283 284 285 284 284 284 285 286 286 285 285 284 285 286 286 285 286 286 287 287 287 287 287 288 289 291 292 292 291 291 291 290 289 289 289 288 288 287 287 287 287 286 286 286 287 287 288 288 289 289 288 287 286 285 285 285 285 284
288 288 288 287 287 287 287 287 287 287 287 286 286 286 286 286 287 288 287 286 285 285 286 286 285 283 281 280 281 283 284 283 282 282 283 283 283 283 284 284 285 285 285 286 287 287 287 287 287 287 287 289 290 291 290 290 289 289 288 288 288 288 288 287 287 287 287 286 286 286 286 286 287 288 288 289 288 287 286 285 285 284 284 282 281
287 287 287 287 287 287 287 286 286 286 286 285 285 285 284 284 284 286 287 287 286 285 285 284 284 282 281 279 279 281 282 282 281 281 282 282 282 283 283 284 284 285 285 286 287 287 287 287 287 287 287 288 289 289 288 288 288 287 287 287 287 287 287 287 287 287 287 286 286 286 286 286 287 288 288 288 287 287 286 285 284 283 282 281 281
287 287 287 287 287 286 286 286 286 285 285 285 284 284 284 283 283 283 284 285 286 286 285 283 280 279 279 279 279 280 280 281 281 281 281 282 282 283 283 284 284 285 286 286 287 287 287 287 286 286 287 287 287 287 287 287 287 286 286 287 287 287 287 287 287 286 286 286 286 286 286 287 287 288 288 287 287 287 286 285 284 283 282 282 281
287 286 286 286 286 286 286 285 285 285 284 284 284 284 284 283 283 282 282 281 281 283 284 283 280 277 277 278 278 279 280 280 281 281 282 282 282 283 283 284 284 285 286 286 286 287 287 286 286 286 286 287 287 287 286 287 286 286 286 286 286 286 286 286 286 286 286 286 286 286 286 287 288 288 287 287 286 286 285 284 284 283 283 282 281
286 286 286 286 286 285 285 284 283 283 283 283 283 283 283 282 282 281 280 279 278 277 279 280 279 277 276 277 278 279 280 280 280 281 281 281 282 282 283 284 285 285 286 286 286 286 286 286 286 286 286 286 286 286 286 286 286 286 286 286 286 286 286 286 286 286 286 286 286 286 287 287 288 287 287 286 286 285 284 283 283 283 282 281 280
286 286 286 285 285 284 283 283 282 282 282 282 282 282 282 281 281 279 278 277 276 275 275 276 276 275 275 276 276 277 279 279 280 280 280 280 281 282 283 284 285 285 285 285 286 286 286 286 286 286 286 286 286 286 286 286 286 286 285 285 285 286 286 286 286 286 286 286 286 286 287 287 287 286 286 285 285 284 283 283 283 282 281 280 280
285 285 284 283 283 282 282 282 281 281 281 281 281 281 281 281 280 279 278 276 276 275 274 275 274 273 273 274 275 276 278 278 278 278 279 279 280 282 283 284 284 284 284 285 285 285 285 286 286 286 286 285 286 286 286 286 286 285 285 285 285 285 285 286 286 286 286 286 286 287 287 287 287 286 285 285 284 283 283 283 282 281 280 280 279
285 284 283 282 282 281 281 281 281 281 281 280 280 280 280 280 280 279 278 276 275 274 273 272 271 271 272 273 274 275 276 276 276 276 277 278 279 281 282 283 283 283 284 284 284 285 285 285 285 285 285 285 285 286 286 286 286 285 285 285 285 285 285 285 285 285 286 286 286 287 287 286 286 285 285 284 284 284 283 282 281 280 280 280 279
283 283 282 281 281 281 281 280 280 280 280 280 280 280 279 279 279 278 277 275 274 273 272 271 271 272 272 272 272 274 274 275 275 276 277 278 279 280 281 282 283 283 283 284 284 284 285 285 285 285 285 285 285 285 286 285 285 285 284 284 284 284 285 285 285 286 286 286 287 287 286 285 285 284 284 283 283 283 282 281 280 280 279 278 277
282 282 281 281 281 281 280 280 280 279 279 279 279 279 279 279 278 277 275 273 272 272 271 271 271 271 271 272 272 273 274 274 275 276 277 278 279 280 281 282 282 283 283 283 284 284 284 284 285 285 285 285 285 285 285 285 285 284 284 284 284 284 285 285 285 286 286 286 286 286 285 285 285 284 283 282 282 281 280 280 280 279 278 277 277
281 281 281 281 280 280 280 280 279 279 278 278 278 278 278 278 277 275 273 271 270 270 270 270 270 271 271 272 273 273 274 274 275 276 277 278 279 280 280 281 282 282 283 283 283 284 284 284 284 285 285 285 285 285 285 285 284 284 284 284 284 284 285 285 286 286 286 286 286 285 285 284 284 284 283 282 281 280 280 279 279 278 277 277 277
280 280 280 280 280 279 279 279 279 278 278 277 277 277 276 276 275 274 272 271 270 269 269 269 270 270 271 272 273 273 274 275 275 276 277 278 278 279 280 280 281 282 283 283 283 284 284 284 284 284 285 285 285 285 285 284 284 284 284 284 284 284 285 285 286 286 286 286 285 285 284 284 283 283 282 281 280 280 279 279 278 278 277 277 277
280 279 279 279 279 278 278 278 278 278 277 277 277 276 276 276 275 274 273 272 271 270 269 269 269 270 271 272 272 273 274 274 275 276 277 278 278 279 280 281 281 282 283 283 283 284 284 284 284 284 285 285 285 284 284 284 284 284 284 284 284 284 285 285 286 286 285 285 285 284 284 283 283 282 281 280 280 279 279 279 278 278 278 277 277
279 278 278 278 278 277 277 277 277 277 277 277 276 276 276 275 275 274 273 272 272 271 270 269 269 269 270 271 272 273 274 274 275 276 277 278 279 279 280 281 281 282 282 282 283 283 284 284 284 284 284 284 284 284 283 283 283 283 284 284 285 285 285 286 286 285 285 285 285 285 284 283 282 281 280 280 280 279 279 278 278 278 277 277 277
278 278 277 277 277 277 277 277 277 277 276 276 276 276 276 275 275 274 273 273 272 272 271 271 270 270 271 272 273 273 274 275 276 277 277 278 279 279 280 280 281 281 281 282 283 283 283 284 284 284 284 284 283 283 283 283 283 283 284 284 285 285 285 285 285 285 285 285 285 285 284 283 281 280 279 279 279 279 278 278 278 277 277 276 276
277 277 277 277 277 277 277 277 277 277 276 276 276 275 275 275 275 274 273 273 272 272 272 272 272 272 272 273 273 274 275 276 276 277 277 278 279 279 280 280 281 281 281 282 282 283 283 284 284 283 283 283 283 283 283 283 283 283 284 284 284 285 285 285 285 284 284 284 284 284 283 282 280 279 279 279 279 278 278 278 277 277 276 276 275
277 277 277 277 277 277 277 277 277 276 276 276 275 275 275 275 275 274 274 273 272 272 272 272 272 272 273 273 274 274 275 276 277 277 278 278 279 279 280 280 280 280 281 282 282 282 283 283 283 283 283 283 283 283 283 283 283 283 283 283 284 284 284 284 284 284 284 283 283 282 281 280 280 280 279 279 278 278 278 277 277 276 276 275 274
277 277 276 276 276 277 277 277 276 276 276 275 275 275 275 274 274 274 274 273 273 272 272 272 273 273 273 274 274 275 275 276 276 277 278 278 279 279 280 280 280 280 281 281 282 282 283 283 283 283 283 283 283 283 283 283 283 283 283 283 283 283 283 283 283 283 283 282 281 280 279 279 279 279 278 278 278 277 277 277 276 276 275 274 274
276 276 276 276 276 276 276 276 276 276 276 275 275 275 275 274 274 274 274 273 273 273 272 272 273 273 273 274 274 275 275 276 276 277 278 278 278 279 279 279 279 280 280 281 281 282 282 282 282 282 282 282 282 282 282 282 282 282 282 282 282 282 281 281 281 281 281 280 279 279 279 279 278 278 278 277 277 277 277 276 276 275 274 274 273
276 276 276 276 276 276 276 276 275 275 275 275 275 274 274 274 274 274 273 273 273 273 272 272 272 273 273 274 274 274 275 275 276 276 277 278 278 278 278 278 279 279 280 280 281 281 281 281 280 280 280 281 281 281 281 281 281 281 281 281 281 281 281 280 280 279 279 278 278 278 278 278 278 277 277 277 277 277 276 275 275 274 274 273 273
Wind_Speed
1 2 3 4 4 4 5 6 6 7 7 7 8 8 9 9 10 10 11 12 12 12 13 14 14 15 16 16 17 18 20 21 22 24 25 27 28 29 30 30 32 33 33 34 34 34 36 38 39 39 38 40 41 41 42 40 39 38 37 39 41 42 44 47 52 58 59 54 53 54 53 52 52 50 47 45 43 42 41 42 43 42 42 41 38
1 2 3 3 3 3 4 4 4 5 5 6 7 8 9 9 10 11 12 12 13 13 14 14 15 15 16 16 17 18 19 20 21 23 24 26 27 28 30 31 33 34 35 36 36 35 36 37 39 38 38 39 40 40 41 39 37 38 38 40 42 43 43 46 49 54 57 56 52 53 53 52 53 51 48 47 45 43 42 42 43 42 42 41 39
2 2 2 2 1 1 0 1 1 3 5 7 8 9 10 11 11 12 13 14 14 15 15 16 16 16 16 16 17 17 18 19 20 22 23 24 26 27 28 30 32 34 35 37 37 37 38 39 40 39 38 39 40 40 40 40 39 39 40 42 44 45 44 44 47 51 55 56 53 52 53 53 52 51 49 48 46 44 43 42 42 41 41 40 39
3 3 3 2 2 1 1 2 3 4 7 9 10 12 12 13 14 14 14 15 16 17 17 18 18 18 18 18 18 19 19 19 20 20 21 23 24 25 27 28 30 32 34 35 36 37 38 40 40 39 39 40 41 41 40 40 40 40 41 42 44 46 46 46 48 50 52 55 54 51 52 52 52 51 50 49 47 45 43 42 41 40 39 39 39
4 3 2 1 0 1 3 4 5 6 8 10 11 12 13 14 14 15 15 16 16 17 18 19 19 20 20 21 21 21 22 22 22 22 22 23 24 25 26 27 29 30 32 33 35 36 38 39 40 39 39 40 42 42 41 41 40 40 42 42 43 44 45 45 46 46 49 53 53 51 52 52 52 52 51 49 47 45 43 42 40 39 39 39 39
3 2 1 1 2 3 4 5 6 6 7 8 10 11 12 13 14 15 16 16 17 17 18 18 19 20 20 21 22 22 22 23 24 24 25 25 26 27 28 28 29 30 31 32 33 35 37 38 39 39 39 41 43 43 43 42 40 40 41 42 41 41 42 43 44 45 48 51 52 52 52 52 52 52 51 49 47 45 43 42 40 39 39 39 38
3 2 2 2 3 4 4 5 5 6 7 8 9 11 13 14 15 16 17 17 18 18 19 19 20 21 21 22 22 23 23 23 24 25 26 27 28 29 30 31 32 32 32 33 33 34 35 36 37 39 39 41 42 42 42 42 41 41 41 40 39 39 40 42 44 46 48 49 50 50 49 49 50 50 49 47 46 44 42 41 41 41 40 39 39
3 2 2 2 2 3 3 4 5 6 7 9 11 13 15 16 17 18 19 19 20 20 20 21 21 22 23 23 23 24 24 25 25 26 27 28 29 30 31 32 33 34 35 35 35 36 36 37 37 38 39 40 41 41 41 41 41 42 41 40 39 38 40 42 44 45 47 47 48 48 47 48 49 48 47 46 46 45 44 43 42 42 41 40 38
3 2 1 0 1 3 4 5 6 8 9 11 13 16 17 19 21 22 22 22 22 22 23 23 23 23 24 24 25 25 26 26 27 28 29 29 30 31 32 32 33 35 36 37 38 38 39 39 39 39 39 40 40 41 41 40 40 41 42 41 40 40 41 42 43 45 45 46 47 46 46 48 49 48 48 48 48 46 45 44 42 41 39 37 36
3 2 1 1 3 4 6 8 10 11 13 15 17 19 21 23 24 25 25 25 25 25 26 26 26 27 27 27 27 27 28 29 29 30 31 31 32 33 33 34 34 35 36 37 38 39 39 40 40 40 40 41 41 41 41 41 41 42 42 41 41 42 41 42 43 43 44 45 46 46 46 48 49 50 50 50 48 46 46 44 42 40 37 34 34
1 0 2 4 5 7 10 12 14 16 18 19 21 23 24 25 26 26 27 27 27 28 28 28 29 30 30 31 31 30 30 31 32 33 33 34 35 36 37 36 36 36 36 37 38 39 39 40 40 40 41 41 41 41 42 42 42 42 42 41 40 40 40 42 44 44 44 46 47 46 47 49 49 50 51 49 46 46 46 44 42 41 38 36 37
2 4 5 7 9 11 14 16 18 20 21 22 24 24 25 26 27 28 28 28 29 29 30 31 31 32 33 33 34 34 33 33 34 35 35 36 37 39 40 41 41 41 40 40 40 40 40 40 40 41 41 41 41 42 42 43 43 43 43 41 40 39 39 41 43 44 44 45 47 48 49 49 49 49 50 48 46 45 44 43 42 40 39 39 40
4 6 8 11 13 15 17 18 20 21 22 24 24 25 26 27 28 29 30 30 31 31 32 33 33 34 35 36 37 37 37 37 37 37 38 38 39 40 43 44 46 47 46 46 45 45 44 43 43 43 42 42 42 42 43 43 44 43 43 42 41 41 40 39 40 42 44 45 48 49 48 47 47 48 47 46 45 43 42 42 41 39 39 40 41
7 9 11 14 15 17 19 20 21 22 23 24 25 25 27 28 29 30 31 32 33 34 34 35 36 36 37 38 40 40 40 40 40 41 41 41 42 43 44 46 47 49 50 50 50 49 48 47 46 46 45 43 43 43 43 44 44 44 44 43 43 42 41 40 40 42 44 45 47 49 47 46 46 45 44 44 44 41 40 40 39 38 39 39 38
9 12 14 16 17 18 20 21 22 23 24 25 26 27 28 29 30 31 33 33 34 35 36 37 37 38 38 39 41 41 41 41 42 43 44 44 44 45 47 47 49 50 51 51 52 52 52 51 50 49 47 45 43 42 43 44 44 44 44 43 43 43 42 42 40 41 43 45 46 47 47 45 45 44 43 44 42 39 36 35 34 35 37 38 37
11 14 15 17 18 20 21 22 23 24 25 26 27 28 29 30 32 33 34 35 36 36 37 38 39 40 40 41 42 43 43 42 43 44 45 46 47 48 49 50 51 52 52 52 52 53 54 54 53 52 51 49 45 43 42 43 43 44 43 43 43 43 44 43 40 39 42 44 45 46 44 42 42 42 41 41 39 35 32 32 33 35 38 39 39
14 15 17 18 20 21 23 24 26 27 28 29 30 31 32 33 34 35 37 38 38 39 40 40 41 42 43 44 45 46 46 45 45 45 46 47 48 50 51 52 53 54 54 54 54 54 55 55 54 54 53 52 49 45 43 42 41 42 42 42 42 43 43 42 40 39 40 42 42 42 41 40 40 40 38 38 36 33 32 35 38 40 40 40 39
16 17 18 20 21 23 25 26 28 29 30 31 33 34 34 35 36 37 38 40 41 41 42 43 44 44 45 46 47 49 50 49 48 48 48 49 50 51 52 54 55 56 56 56 56 55 55 55 54 53 54 53 51 47 44 41 40 40 40 40 41 42 42 41 41 41 41 40 40 39 39 39 39 38 37 35 33 32 33 36 39 40 40 40 40
17 18 20 21 23 24 26 27 29 30 31 32 33 34 35 36 37 38 39 41 43 44 45 46 47 47 48 48 49 51 52 52 51 51 51 50 51 52 53 55 56 57 57 58 58 58 57 56 55 54 53 52 50 47 44 40 38 38 38 38 40 43 41 39 40 41 40 39 39 38 37 38 38 37 35 33 32 32 32 34 37 39 41 42 41
19 20 21 22 23 24 25 26 28 29 30 32 32 34 35 36 38 39 40 42 44 46 47 48 50 51 51 51 52 53 54 55 54 54 53 53 53 53 54 55 57 57 58 59 60 60 59 57 56 55 53 51 49 46 42 38 36 37 37 38 41 43 40 38 39 40 39 38 37 35 35 36 36 36 34 32 32 31 30 33 37 39 40 42 41
19 20 21 22 22 23 24 26 27 28 30 32 33 34 35 37 39 41 42 44 46 47 49 50 52 53 53 54 55 55 56 57 57 56 56 55 55 55 55 56 56 57 58 59 60 61 60 58 57 55 52 50 49 46 42 36 34 35 37 39 41 41 39 38 39 38 36 35 34 33 33 33 34 35 33 32 32 30 30 35 37 37 38 39 38
19 20 20 21 22 23 24 25 27 29 30 32 34 36 37 38 41 43 45 47 48 50 51 52 54 56 57 57 57 57 57 57 58 58 58 57 56 56 56 56 56 56 57 59 60 60 59 58 57 54 51 49 48 46 41 36 33 35 38 39 40 39 37 36 37 36 35 33 32 32 32 32 34 34 33 31 30 30 33 37 38 36 36 36 33
19 20 21 22 23 24 26 27 29 30 32 34 37 39 40 42 43 45 47 49 51 53 54 55 56 58 60 60 61 60 59 58 58 58 58 57 56 56 56 56 56 55 56 57 58 58 57 56 56 53 50 48 47 45 42 37 34 36 38 38 38 38 35 34 35 35 34 33 33 33 32 32 34 34 33 32 32 33 36 38 38 36 36 35 32
20 21 22 23 25 26 28 29 31 33 35 37 39 41 43 45 47 48 49 51 53 55 56 57 58 60 62 63 64 64 62 61 60 58 58 57 56 56 56 56 56 55 55 55 56 55 55 54 53 51 48 46 45 44 42 39 36 37 38 38 37 35 33 33 33 33 33 34 34 33 33 33 34 34 35 35 35 36 36 38 38 36 35 34 30
21 22 24 25 27 29 31 32 34 36 38 40 42 44 46 48 50 51 53 54 55 56 57 59 59 61 62 63 64 65 64 63 62 60 58 57 56 55 55 56 56 54 53 53 54 53 52 51 50 48 46 44 43 43 43 41 38 37 38 36 34 33 33 32 32 32 33 35 34 33 33 33 34 36 37 37 36 36 37 38 38 35 33 32 30
23 24 26 28 30 32 35 36 38 39 41 42 44 46 48 50 52 54 55 56 56 57 58 59 60 61 63 63 64 64 64 64 64 62 60 58 57 56 55 55 55 53 52 52 52 50 49 48 47 45 44 42 41 42 42 42 39 38 37 35 32 32 33 33 33 33 33 34 33 33 33 35 36 38 38 37 37 37 38 39 38 35 33 32 30
25 27 29 31 33 35 37 39 41 43 44 45 47 48 49 51 53 55 56 57 58 59 60 60 61 62 63 63 64 64 64 64 63 62 60 59 58 57 56 55 55 53 51 51 50 49 47 46 44 43 42 41 41 41 42 42 41 40 38 35 32 31 33 34 33 33 33 33 32 33 35 37 38 38 38 37 38 38 37 38 37 34 32 31 30
27 29 31 33 35 37 39 41 44 46 47 49 50 51 53 54 55 57 58 58 59 60 61 61 62 62 62 62 63 63 64 64 63 61 59 58 58 57 55 52 50 48 46 45 44 45 46 45 43 42 42 41 41 41 41 41 42 42 39 36 33 31 32 34 34 33 32 31 32 35 38 39 39 39 38 38 38 38 36 34 32 32 31 30 28
29 31 33 35 38 40 42 43 45 48 50 51 53 54 55 56 57 59 59 58 58 58 59 61 62 61 59 59 60 61 63 64 62 59 57 57 56 53 49 46 44 43 42 39 37 40 44 45 43 42 42 43 41 41 40 40 41 41 39 37 33 31 31 34 36 35 33 32 35 38 40 40 40 39 39 39 38 36 34 31 30 29 28 27 25
31 33 35 37 39 41 43 45 47 49 52 54 55 57 58 58 57 59 60 60 59 58 58 59 60 59 58 59 59 58 59 60 59 57 56 55 52 48 45 42 41 41 41 38 36 37 40 43 43 42 42 43 42 40 40 40 39 40 39 37 34 32 32 35 37 36 34 35 38 39 40 41 41 41 42 40 38 35 32 31 29 26 24 23 23
32 34 36 38 40 42 45 47 49 51 52 53 55 57 59 61 60 60 60 60 61 61 61 60 58 54 52 54 56 56 55 54 52 50 50 51 51 49 45 41 40 40 40 37 37 38 39 40 42 43 42 43 44 42 41 40 39 39 39 37 34 33 33 34 37 37 36 36 38 39 40 42 43 43 42 39 36 33 31 29 26 23 22 22 22
33 35 37 39 41 43 45 47 48 49 50 51 52 54 56 60 62 63 61 59 59 60 61 61 59 54 47 43 45 50 52 50 47 45 46 48 49 48 46 43 41 41 38 36 37 40 40 38 39 42 44 44 45 44 43 40 40 40 38 36 34 33 33 35 37 38 38 38 39 40 41 43 43 42 40 36 33 32 30 28 26 23 22 22 20
34 35 37 39 41 42 44 45 46 47 48 49 50 51 53 55 58 62 63 62 61 61 60 59 58 55 50 41 36 38 42 45 46 47 46 46 45 45 44 44 42 39 37 37 38 40 41 39 37 40 44 45 45 45 44 40 38 38 37 35 34 33 33 35 38 38 38 38 39 40 42 43 43 41 37 35 32 30 28 28 27 25 24 23 21
34 35 36 38 39 41 42 43 44 45 46 47 48 49 50 51 53 56 60 63 65 66 65 61 54 48 45 43 39 36 36 40 44 47 46 44 43 41 41 42 41 38 37 38 38 38 40 40 39 40 43 45 44 45 45 40 37 36 35 33 32 32 33 36 38 39 38 38 39 41 42 43 43 40 36 33 30 27 27 28 28 26 25 23 21
33 34 35 37 38 40 41 42 42 43 44 45 46 47 49 51 52 53 55 57 60 63 65 64 58 46 38 39 40 40 38 38 40 42 42 42 42 40 39 42 42 40 38 37 37 38 40 42 42 43 44 44 44 44 43 39 36 35 33 32 31 32 34 36 37 38 37 38 39 41 42 42 41 37 33 31 28 27 27 28 27 25 22 21 20
32 33 35 37 38 39 40 40 41 42 43 45 46 48 49 50 51 51 52 53 54 56 58 60 59 52 42 36 35 37 40 39 37 37 40 42 42 41 41 42 40 38 37 36 36 39 41 42 42 42 42 42 41 41 40 38 35 33 32 32 32 32 34 36 37 37 37 38 39 40 40 40 37 33 31 29 27 26 27 26 25 22 20 19 18
32 33 35 36 37 37 38 39 40 42 44 45 47 48 49 50 50 50 51 51 51 51 54 55 55 54 49 41 35 35 37 38 39 40 42 41 39 37 37 38 37 37 37 36 35 38 41 42 41 40 39 38 38 38 38 35 32 30 31 32 32 33 34 36 37 37 37 38 38 39 39 37 33 31 29 26 25 26 27 26 23 21 20 19 18
31 32 33 34 35 36 38 39 40 42 43 44 46 47 48 49 49 49 49 49 49 50 52 52 52 51 49 45 39 35 35 40 44 46 45 41 37 34 33 35 37 38 38 37 36 37 39 40 40 39 38 36 36 37 36 33 29 28 30 31 31 32 34 35 36 36 36 35 37 38 37 34 31 29 27 23 23 26 27 24 22 21 21 20 18
30 31 31 32 33 34 36 38 39 40 42 43 45 46 47 48 49 49 48 48 49 50 49 49 49 48 46 43 39 36 38 43 45 46 45 43 40 37 34 35 37 39 38 38 37 37 37 37 38 38 37 36 35 35 33 31 28 27 29 30 30 32 34 35 36 36 35 35 36 36 34 30 28 27 24 22 23 25 25 23 21 20 19 17 16
29 30 30 31 32 33 34 36 37 39 40 42 43 44 45 46 46 47 47 46 47 48 47 47 48 48 45 42 39 39 42 45 46 45 45 44 42 39 37 37 38 38 38 38 37 36 35 36 36 36 35 34 32 31 30 28 26 26 27 29 30 31 33 34 33 33 34 34 35 33 30 28 26 25 24 23 23 22 22 22 20 18 17 15 16
28 29 29 30 31 33 33 34 36 37 38 40 42 43 44 44 44 44 45 45 45 46 46 46 47 47 45 43 41 40 42 45 47 46 45 43 41 40 40 39 38 38 37 37 36 35 34 34 34 33 32 30 29 29 27 25 23 24 26 28 29 30 31 31 31 31 32 33 31 29 27 26 24 22 23 24 23 22 21 20 18 17 17 17 17
26 27 28 29 30 31 32 33 34 36 37 39 41 42 43 44 43 42 43 43 43 44 45 46 46 46 45 44 43 42 42 43 44 44 42 41 40 40 40 39 37 36 35 34 33 31 31 30 30 29 28 27 26 26 24 22 21 22 24 26 28 30 30 29 29 30 31 30 27 25 24 23 21 21 23 24 23 21 20 18 17 17 17 17 16
24 25 26 27 27 29 30 30 32 34 36 37 39 41 41 42 41 40 40 39 39 39 40 42 44 45 45 44 43 41 41 42 42 42 41 40 39 39 38 36 34 31 29 28 27 26 26 26 25 25 24 24 23 22 20 18 17 19 21 24 26 28 29 28 29 30 29 26 25 23 22 21 21 22 23 22 21 20 18 17 17 17 16 15 15
22 23 23 24 25 26 27 28 30 32 34 35 38 39 40 41 41 40 39 38 37 36 36 37 40 42 43 42 40 39 39 40 41 40 38 37 36 35 33 31 28 26 25 24 24 24 23 22 21 20 20 19 18 17 16 14 13 15 17 19 22 25 27 27 28 27 25 24 23 22 20 20 22 23 23 21 20 18 17 16 16 16 15 15 14
20 21 22 23 24 24 26 27 29 30 32 34 36 38 39 41 41 40 40 39 38 37 36 36 37 38 38 38 37 37 37 38 37 36 34 32 31 30 28 26 25 24 23 23 23 22 21 19 17 15 15 15 15 14 13 12 12 13 14 16 18 21 24 25 25 23 22 22 20 17 17 19 21 22 21 19 17 16 15 15 15 15 14 13 12
19 20 21 22 23 24 25 27 28 30 31 33 34 36 38 40 41 41 41 40 39 38 37 36 35 35 35 35 34 34 34 34 33 32 30 29 27 26 25 23 22 21 21 21 21 20 18 15 12 11 10 10 11 11 10 11 12 13 14 15 18 20 22 23 21 20 19 17 15 14 17 20 21 20 18 17 16 15 15 15 14 13 12 12 12
17 18 20 21 22 23 24 26 27 29 30 31 32 34 36 38 40 41 42 41 40 38 37 36 35 34 33 32 32 32 31 30 30 29 28 26 25 24 22 20 19 19 18 18 19 18 14 10 6 6 6 6 6 7 7 8 10 12 13 16 18 18 18 18 18 16 15 14 13 15 17 19 20 19 18 17 16 16 16 15 13 13 12 13 13
17 18 19 20 21 22 24 25 26 28 29 30 31 32 33 35 37 39 41 41 41 39 38 36 35 34 32 31 30 30 29 28 27 26 25 24 23 22 21 19 18 17 16 16 17 15 10 6 3 2 2 3 5 6 7 8 9 11 12 14 15 15 14 15 15 15 14 14 16 17 17 17 17 16 16 16 15 15 14 13 13 13 14 15 15
17 17 18 19 20 22 23 24 25 27 28 29 30 31 32 33 34 36 38 40 40 40 38 37 35 34 32 31 29 28 28 27 25 24 23 23 22 21 20 18 17 16 15 15 14 11 8 5 3 1 2 3 5 7 9 10 11 12 12 13 14 14 14 14 15 16 16 17 18 19 18 17 15 15 14 14 14 13 13 13 13 13 14 15 15
16 17 18 19 20 21 22 23 23 25 26 27 29 30 31 31 32 34 35 37 38 39 39 37 35 33 32 31 30 29 28 27 26 25 24 23 22 20 18 17 15 14 13 12 10 7 5 4 3 2 2 4 6 8 10 11 12 13 14 15 16 16 16 16 16 17 18 18 18 18 17 16 15 15 15 14 13 13 13 13 13 14 14 14 14
16 17 18 19 20 21 22 22 23 23 24 25 26 28 29 30 31 31 32 34 35 37 37 36 35 33 32 31 30 29 28 27 27 26 25 24 22 20 17 15 13 11 9 6 4 2 1 1 0 1 3 5 7 8 9 10 11 12 13 14 15 16 17 17 17 17 17 16 16 15 15 14 14 13 13 12 12 12 13 13 13 14 14 14 14
Wind_Direction
276 263 263 267 277 290 307 320 327 329 331 331 329 327 328 329 329 329 327 323 321 321 318 316 314 312 310 308 305 300 296 293 289 286 284 283 283 281 280 278 277 278 278 277 277 276 276 277 276 277 276 275 274 273 274 274 274 273 269 267 266 264 266 266 266 271 275 275 276 278 281 283 284 285 286 285 283 281 282 282 280 276 273 272 268
263 265 269 270 278 291 302 316 332 340 343 344 343 342 342 343 344 343 340 336 334 332 330 328 325 323 322 319 315 312 309 306 302 299 297 295 292 289 287 284 282 281 279 279 279 278 278 277 278 279 278 277 276 275 276 278 277 275 271 268 268 266 264 265 267 270 274 277 278 279 282 283 282 284 286 285 284 281 279 279 278 276 273 271 267
219 226 228 222 235 265 270 323 353 354 350 348 347 346 344 344 345 345 343 341 340 340 339 339 338 336 336 332 328 325 320 317 314 311 308 306 303 300 296 293 290 289 287 286 285 283 281 281 280 281 281 280 280 279 279 279 278 277 274 270 269 269 268 267 267 268 272 277 279 278 280 282 283 285 285 284 283 280 278 277 275 273 270 268 265
169 163 157 157 147 122 67 21 2 350 347 345 344 344 342 341 340 340 338 336 335 335 335 335 336 336 336 335 334 333 330 327 324 321 316 312 307 304 301 298 295 294 293 292 290 288 286 284 284 284 283 282 282 282 280 279 277 277 276 273 269 268 269 269 269 269 272 276 278 278 279 281 283 283 282 281 281 279 278 276 274 271 267 265 262
148 141 142 159 166 349 344 349 350 347 346 345 345 345 344 343 342 342 341 338 336 335 334 332 331 331 330 330 329 329 328 327 326 324 321 317 313 309 306 303 300 298 296 295 294 291 289 288 287 285 283 282 283 283 282 280 279 278 278 277 272 268 267 268 269 270 272 274 276 278 279 279 280 280 279 279 279 278 276 274 271 268 264 262 259
146 157 187 246 299 319 328 338 345 347 348 348 348 349 348 346 344 343 342 342 340 339 337 335 333 332 331 329 328 326 325 324 322 320 318 315 313 312 310 308 306 304 302 299 297 295 293 292 291 288 285 284 285 285 283 282 281 279 279 280 277 271 267 267 269 270 271 273 276 277 277 277 277 277 278 278 276 275 273 271 269 265 263 260 256
170 205 241 268 294 310 325 340 347 352 354 352 350 348 346 343 341 340 338 337 336 334 334 333 331 331 331 330 329 328 327 326 323 320 318 315 313 310 308 307 306 305 304 302 300 298 296 295 293 291 288 287 286 285 284 283 282 280 280 281 280 274 269 268 270 271 272 274 274 274 275 276 275 275 276 276 273 270 268 266 265 264 262 257 252
189 212 242 268 299 323 344 354 357 358 353 347 343 340 338 337 336 335 334 332 330 329 327 326 325 325 325 325 325 325 325 326 324 321 320 318 314 311 309 307 306 304 302 301 300 299 298 297 295 293 291 289 287 285 283 282 281 280 280 280 280 276 271 270 270 271 273 273 273 273 273 273 272 272 272 270 267 266 267 267 266 264 261 254 249
175 177 187 221 353 357 356 352 347 344 339 335 333 331 331 331 330 330 329 328 326 325 323 322 321 320 320 320 321 322 322 323 323 322 321 319 316 313 311 309 307 305 304 302 301 300 299 298 297 296 295 292 289 286 282 279 278 277 278 278 279 277 273 271 271 271 272 272 272 273 272 270 270 271 270 270 270 272 272 268 263 260 257 251 247
159 159 144 27 4 352 343 339 337 335 333 332 331 330 329 328 327 326 326 325 323 322 321 320 320 319 318 318 318 318 320 320 320 321 321 320 317 314 312 310 308 306 305 303 302 301 300 299 298 298 297 294 292 289 285 281 276 275 274 274 275 276 274 272 272 271 272 272 273 273 271 270 271 273 273 274 275 274 270 264 259 255 248 241 237
137 27 357 354 347 342 337 336 336 334 333 332 330 329 328 326 325 324 323 323 321 321 320 319 319 319 318 317 317 317 318 318 318 318 318 318 317 315 313 311 308 306 305 303 303 302 302 301 300 299 297 296 295 293 289 285 281 277 275 271 271 273 273 271 271 272 271 272 273 273 271 270 272 273 273 274 273 270 266 262 256 248 240 234 231
354 341 343 342 338 338 336 334 334 331 330 330 329 328 327 325 324 323 323 323 321 320 321 320 319 319 318 318 318 318 318 318 317 316 316 316 316 314 312 311 310 309 308 306 305 305 304 304 303 301 299 298 297 295 292 290 286 282 279 274 271 271 270 268 267 269 270 271 272 272 270 270 270 270 270 272 272 269 265 259 252 245 241 238 234
341 336 338 336 333 333 331 330 329 328 327 328 327 326 326 325 324 323 323 323 322 321 321 320 320 320 319 319 318 318 319 319 319 318 318 317 317 315 312 311 311 309 309 308 308 307 306 305 303 301 300 299 297 295 293 292 289 286 282 278 274 271 270 266 263 264 268 269 270 271 271 270 270 271 273 274 272 268 261 254 248 243 241 239 236
335 334 334 332 329 328 327 326 326 326 325 326 326 325 324 324 323 322 321 321 320 320 319 319 318 318 318 318 316 316 317 318 318 318 318 318 318 316 313 311 310 308 307 307 307 307 306 305 303 302 301 299 298 296 294 292 289 286 283 280 276 273 271 268 262 260 264 266 268 269 271 271 272 274 275 272 269 268 264 257 252 247 242 239 237
331 331 329 328 326 325 325 325 325 324 324 324 323 323 322 322 321 320 319 319 318 318 317 316 315 315 315 314 313 312 313 314 315 315 315 315 315 314 312 310 309 307 306 305 305 305 305 304 303 302 302 300 299 298 295 291 288 285 283 280 278 275 273 270 265 261 261 263 266 269 270 271 271 272 271 269 268 269 268 264 260 254 244 235 229
327 327 327 326 326 325 325 325 324 324 323 322 322 322 321 321 321 319 318 317 316 316 315 314 314 313 312 312 310 309 308 310 311 311 311 312 312 311 310 309 308 306 305 304 304 303 302 302 302 302 301 301 301 299 295 291 286 284 282 280 278 277 275 274 271 266 262 262 266 270 271 270 268 266 266 266 265 263 259 251 245 239 231 222 218
326 327 328 327 326 326 325 325 324 323 323 322 322 322 321 321 320 319 317 316 315 314 313 312 311 311 311 310 310 308 307 308 309 309 309 310 309 308 308 307 306 305 304 304 304 303 301 300 300 300 300 300 301 301 298 292 286 283 282 280 279 278 277 277 276 271 268 267 269 270 270 267 263 261 261 260 258 256 247 237 230 225 220 215 212
327 327 327 326 326 326 324 323 323 322 321 321 320 320 319 319 318 317 316 314 313 313 312 311 310 310 310 309 309 308 307 307 308 308 307 308 307 306 306 305 304 303 303 303 302 301 301 300 300 300 299 298 299 300 299 292 285 281 280 278 278 277 276 278 278 276 274 273 273 271 267 263 260 257 255 253 251 248 242 236 229 223 217 211 209
326 326 326 325 324 323 321 320 319 318 318 318 317 317 316 316 315 315 314 313 312 311 311 310 309 309 308 308 307 307 306 306 306 307 306 306 305 304 304 303 302 301 302 302 301 301 300 301 301 300 299 299 298 298 296 289 282 279 277 275 275 276 277 279 281 281 280 278 276 273 268 263 259 253 248 246 242 240 239 237 231 224 216 210 208
324 324 323 321 319 318 316 315 315 314 314 314 313 314 313 313 312 311 310 309 308 308 308 308 307 307 307 307 306 305 305 305 305 306 305 305 304 303 303 302 301 300 300 300 299 299 299 300 301 301 301 301 299 296 293 286 278 276 274 271 272 274 278 281 281 281 281 279 277 275 270 265 258 250 242 237 234 233 232 229 227 224 218 211 209
319 317 316 313 313 312 311 311 311 311 311 311 310 310 310 310 309 309 308 308 307 306 306 306 306 305 305 305 305 304 305 305 305 305 304 303 302 302 302 300 300 300 299 297 296 297 297 298 299 301 301 300 298 295 291 284 276 272 270 269 271 274 278 280 279 279 279 277 275 272 267 260 253 245 237 231 229 228 224 221 221 222 217 212 211
311 310 309 308 309 309 309 310 310 310 311 311 310 310 310 310 309 309 309 309 308 307 307 307 307 306 305 304 304 303 304 304 304 304 303 301 301 300 299 298 298 298 297 295 294 294 295 295 296 298 299 298 296 293 289 284 276 271 270 271 271 274 277 278 277 276 274 271 268 264 259 253 246 238 232 228 226 221 215 214 215 213 212 214 218
307 307 308 308 310 311 311 312 312 313 313 313 312 312 311 311 311 310 310 310 309 308 308 308 308 306 305 304 303 303 303 302 302 301 300 300 299 298 297 296 296 296 296 295 294 293 293 293 293 295 296 295 293 290 287 283 276 272 272 272 273 275 277 275 272 271 269 266 261 257 252 246 239 231 225 222 219 215 212 211 210 208 210 214 217
307 309 310 311 312 313 314 314 315 315 315 315 314 314 313 313 312 311 311 311 310 310 309 309 308 307 306 305 304 303 303 302 301 300 299 299 298 297 296 294 293 294 294 293 292 292 292 291 292 292 292 290 289 287 284 281 277 273 272 273 273 274 273 269 267 265 264 261 257 252 247 241 233 225 220 217 214 212 210 208 207 208 210 210 208
309 312 313 315 316 316 316 317 317 317 317 317 316 315 315 314 314 313 313 312 311 310 309 309 308 307 306 305 305 305 304 303 302 300 299 299 298 296 296 294 293 292 292 291 291 291 290 290 290 289 288 286 285 284 282 280 277 274 274 274 273 270 266 263 261 259 257 256 254 248 242 234 225 220 218 215 212 210 208 205 203 203 202 201 202
314 317 318 319 319 319 319 319 319 319 318 318 317 317 316 316 314 314 313 312 311 310 309 309 308 306 305 305 305 305 304 303 302 302 301 301 299 297 295 294 292 291 290 289 289 289 289 288 287 285 283 282 282 282 282 280 277 274 273 272 269 264 259 257 255 252 251 252 249 241 232 224 219 217 216 212 208 208 207 201 196 194 195 199 202
318 320 320 321 321 321 321 320 319 319 319 318 317 317 315 314 313 312 312 312 312 311 310 309 308 307 307 306 305 305 303 302 302 302 302 302 300 298 297 295 293 292 291 290 289 289 288 286 284 281 279 278 279 280 280 279 276 273 270 268 263 258 254 253 252 251 250 249 243 232 222 218 216 213 210 207 205 204 202 198 193 191 195 201 202
320 321 321 322 322 321 321 321 320 320 319 318 317 317 316 315 314 313 313 313 313 312 311 309 308 307 307 306 305 304 303 302 302 302 302 301 299 298 298 297 296 294 293 293 293 294 292 288 284 280 277 276 277 277 277 277 275 273 270 267 263 258 251 249 249 249 247 243 234 224 218 215 212 208 206 205 202 198 196 196 196 196 197 198 197
321 322 322 322 322 322 321 321 320 319 319 318 318 317 317 317 316 314 314 314 313 312 310 308 308 308 308 306 305 303 302 302 302 302 301 299 297 296 295 295 294 292 291 292 292 292 290 289 286 283 279 277 277 277 277 277 275 272 270 266 263 257 249 243 241 241 239 233 225 220 216 212 209 205 204 202 197 194 194 195 197 198 197 194 191
322 322 322 322 321 321 321 321 321 321 321 321 320 319 318 318 317 316 315 314 313 312 311 310 310 309 307 306 304 301 299 301 302 300 299 297 295 293 292 290 289 288 288 290 290 284 280 280 281 280 278 278 278 277 277 276 274 272 269 266 261 255 248 241 238 237 233 227 222 219 215 210 206 202 199 197 193 193 195 195 196 197 194 188 184
321 321 322 321 321 322 322 323 323 324 324 324 323 322 320 319 318 317 318 317 316 314 313 312 311 309 307 305 304 302 301 300 299 298 297 297 295 294 292 289 286 285 286 288 287 281 275 273 275 275 275 277 278 278 277 275 273 269 266 264 260 255 247 240 235 231 227 222 219 216 212 209 206 199 195 193 192 192 193 193 194 196 193 187 182
321 321 322 322 324 325 325 325 326 326 326 325 325 324 323 321 320 319 319 318 317 315 313 312 311 311 309 302 299 301 303 301 297 295 294 295 295 295 293 291 287 285 285 284 280 276 272 270 270 271 273 276 277 277 276 274 271 267 264 261 260 254 245 237 231 227 223 220 216 212 210 208 204 197 192 191 190 190 190 192 194 194 189 184 182
320 322 323 324 325 326 327 327 327 327 326 326 325 325 324 323 322 320 319 318 317 316 316 315 315 315 314 307 294 290 294 296 296 296 296 295 295 294 293 291 289 287 285 282 277 273 272 269 268 269 272 275 276 275 274 273 270 266 262 261 260 253 243 235 228 224 221 219 215 212 208 205 199 193 190 189 190 189 190 192 193 191 184 180 181
322 324 325 325 326 326 327 327 327 327 327 326 326 325 324 323 323 323 322 322 320 319 319 318 317 316 315 311 302 292 289 291 294 297 297 296 296 294 293 292 291 289 286 281 275 271 270 270 269 270 273 276 276 274 273 272 269 263 260 259 256 248 238 230 224 220 218 216 213 211 208 201 195 191 189 188 188 190 193 193 191 186 182 181 184
322 324 325 326 326 327 327 327 327 327 327 327 327 326 326 327 327 326 326 325 323 321 319 319 318 316 310 306 304 299 294 293 294 296 297 297 297 297 294 292 292 291 288 284 279 275 274 274 273 274 276 279 278 275 272 269 266 262 259 256 249 241 233 226 220 217 216 214 212 209 205 198 193 191 190 187 186 190 193 192 188 184 183 184 188
324 325 327 327 327 327 327 328 329 330 330 330 331 330 330 331 330 328 327 325 323 321 319 318 318 317 314 307 302 300 300 301 299 298 298 299 299 296 293 290 290 289 288 286 282 280 281 281 278 278 280 280 278 274 269 265 264 263 259 253 247 240 233 224 217 215 213 211 210 207 201 195 192 192 190 188 187 190 191 188 185 183 182 184 189
326 327 327 327 328 329 330 331 333 334 334 335 335 334 333 333 332 329 327 325 322 319 318 318 319 320 319 317 311 307 306 304 300 298 300 302 300 296 291 290 291 293 293 291 286 283 285 285 282 280 281 279 276 272 267 263 264 262 255 248 246 243 233 224 218 214 210 208 207 204 198 193 191 191 189 186 187 190 190 187 183 181 182 186 193
328 329 329 329 330 331 332 334 335 336 337 337 336 336 335 334 333 331 327 325 322 320 320 320 320 320 320 320 318 313 307 303 302 305 309 310 306 300 295 292 294 297 297 295 292 289 288 287 284 282 280 279 277 272 265 261 261 258 250 245 244 239 230 223 217 211 208 209 208 202 195 191 190 189 188 186 187 189 187 184 181 181 185 191 196
329 330 330 330 331 333 334 336 336 337 338 338 338 337 337 336 335 333 330 327 324 322 321 319 317 318 319 318 316 313 309 308 309 311 313 312 309 305 300 296 296 299 299 297 297 295 292 288 286 284 282 280 276 269 261 258 257 254 248 244 238 229 223 219 214 209 209 210 205 196 190 189 188 187 188 190 189 186 183 180 181 185 190 194 195
329 330 330 331 333 334 335 336 337 338 339 339 339 339 339 338 336 334 332 328 325 323 322 319 317 320 321 318 314 311 309 308 310 311 312 311 308 306 303 300 299 300 301 299 298 297 294 291 289 287 284 279 271 263 258 256 256 253 248 242 235 227 221 218 215 212 209 202 194 189 187 187 185 186 190 191 188 184 181 180 181 185 188 190 192
329 330 330 332 334 334 335 336 338 340 341 341 341 341 341 340 339 336 333 330 326 324 322 320 319 321 321 319 317 314 309 307 309 312 313 313 310 307 306 305 304 304 303 301 299 298 298 295 293 289 282 273 264 260 257 256 255 252 245 238 232 226 219 214 212 209 201 191 187 186 185 184 184 187 187 184 182 181 180 180 181 184 186 189 195
328 329 331 333 333 333 335 337 339 341 342 343 345 346 345 344 342 339 334 329 325 322 320 319 320 321 322 323 325 323 316 313 313 314 313 313 312 310 309 308 306 305 304 302 301 302 301 298 293 287 277 267 262 261 259 256 253 247 240 234 228 220 213 209 206 199 189 184 184 184 182 182 185 185 182 180 181 181 179 179 182 186 190 194 199
327 329 331 332 332 334 336 338 340 342 344 345 347 348 348 347 346 343 337 331 327 323 318 316 318 321 323 326 327 324 318 315 316 315 314 314 314 313 311 310 309 308 307 307 308 308 303 297 290 281 272 266 264 264 261 257 252 243 236 232 226 217 210 204 197 189 184 184 185 183 180 182 183 181 181 182 182 180 180 183 187 190 194 199 203
327 328 330 332 334 336 338 340 342 343 345 347 349 350 350 350 349 348 343 337 333 329 323 320 321 323 323 323 322 318 316 316 316 316 317 317 317 316 315 315 315 315 315 315 315 309 300 290 281 272 267 265 263 259 254 251 246 238 233 229 223 215 207 199 189 184 185 188 185 180 181 184 182 182 183 183 181 181 184 188 191 195 199 204 206
326 329 331 334 337 339 341 343 344 344 346 349 350 350 351 351 351 352 350 345 339 334 331 328 328 326 324 321 319 318 318 319 318 319 320 321 321 321 321 321 321 321 318 315 312 303 291 279 272 271 272 268 259 249 242 236 230 224 221 219 214 205 197 191 187 186 188 187 183 182 187 188 186 186 185 182 182 186 190 192 196 201 204 207 210
328 331 333 336 339 342 344 344 344 345 348 350 350 351 352 352 352 354 354 352 347 341 336 334 333 330 328 326 325 325 325 324 322 322 323 324 324 324 325 326 326 322 315 310 305 295 281 273 273 277 275 266 255 245 235 225 218 213 208 204 199 193 188 188 190 190 188 187 188 194 196 192 187 185 183 182 185 189 192 196 200 201 202 206 209
329 332 335 337 340 342 343 344 344 345 347 349 351 352 353 352 353 354 354 354 353 349 343 339 336 333 332 332 332 332 331 330 328 327 328 328 329 330 330 330 328 322 313 304 298 288 275 268 280 286 272 257 248 238 226 213 206 204 200 194 191 189 188 189 190 190 189 190 196 200 198 193 187 183 183 187 192 195 197 198 199 199 202 206 209
330 332 335 338 340 341 342 343 344 344 345 346 349 351 352 353 354 354 355 355 356 355 351 347 343 340 338 338 338 338 338 337 335 334 334 336 337 337 336 334 330 323 311 300 293 283 267 253 266 292 266 233 218 211 202 190 185 188 189 187 187 189 190 189 189 190 191 193 193 193 192 192 190 189 191 195 197 199 200 200 200 203 206 207 208
329 331 334 336 337 338 339 341 342 342 343 344 346 348 351 353 354 354 355 356 357 357 356 354 351 349 347 346 346 347 346 346 346 345 345 345 345 344 343 339 332 323 310 300 291 279 257 235 225 227 229 217 200 188 179 173 172 174 178 180 182 184 186 189 191 191 191 190 188 187 187 189 192 194 195 196 197 198 199 202 205 208 209 210 211
326 328 330 331 333 334 335 336 337 339 340 341 343 345 347 350 352 354 355 355 357 358 359 358 357 357 355 354 355 356 356 356 356 357 356 355 352 349 347 343 336 327 316 305 295 278 254 242 238 228 221 211 196 184 178 177 179 182 184 185 184 181 181 185 187 187 187 188 189 189 191 193 195 196 196 196 197 199 201 205 208 210 212 214 216
321 322 324 326 327 328 329 330 332 334 335 337 340 342 343 346 349 352 353 354 355 357 359 360 0 1 1 0 1 2 3 4 5 5 5 4 -0 356 352 347 342 337 332 328 326 322 304 297 8 125 157 173 182 186 186 185 186 188 187 185 182 178 177 178 180 181 183 186 189 192 194 196 198 199 200 200 202 203 205 208 210 212 215 217 218